Regional Weather Roundup
Issued by NWS Charleston, WV

Home | Current Version | Previous Version | Text Only | Print | Product List | Glossary Off
Versions: 1 2 3 4 5 6 7 8 9 10 11 12 13 14 15 16 17 18 19 20 21 22 23 24 25 26 27 28 29 30 31 32 33 34 35 36 37 38 39 40 41 42 43 44 45 46 47 48 49 50

779
ASUS41 KRLX 231710
RWRRLX
West Virginia Regional Weather Roundup
National Weather Service Charleston WV
100 PM EDT MON MAY 23 2016

Note: "fair" indicates few or no clouds below 12,000 feet with no
significant weather and/or obstructions to visibility.

WVZ003-231800-
Northern Panhandle of West Virginia

CITY           SKY/WX    TMP DP  RH WIND       PRES   REMARKS
WHEELING         N/A     71  52  50 VRB6      30.05F
$$

WVZ009-231800-
Northwest West Virginia

CITY           SKY/WX    TMP DP  RH WIND       PRES   REMARKS
PARKERSBURG      N/A     71  53  52 VRB6      30.08F
$$

WVZ006-231800-
Western West Virginia

CITY           SKY/WX    TMP DP  RH WIND       PRES   REMARKS
HUNTINGTON       N/A     71  54  54 CALM      30.06F
$$

WVZ015-231800-
West Central West Virginia

CITY           SKY/WX    TMP DP  RH WIND       PRES   REMARKS
CHARLESTON     PTSUNNY   65  54  67 NE5       30.07F
$$

WVZ022-031-231800-
North Central West Virginia

CITY           SKY/WX    TMP DP  RH WIND       PRES   REMARKS
CLARKSBURG       N/A     69  53  56 W5        30.05F
MORGANTOWN       N/A     69  52  54 VRB6      30.05F
$$

WVZ025-035-042-045-231800-
Southern West Virginia

CITY           SKY/WX    TMP DP  RH WIND       PRES   REMARKS
BECKLEY          N/A     61  48  62 N10G18    30.07F
LOGAN            N/A     64  54  68 CALM      30.07F
BLUEFIELD      CLOUDY    56  47  71 NW5       30.08F
LEWISBURG      PTSUNNY   60  50  69 W6        30.05F
$$

WVZ047-231800-
Northern Mountains of West Virginia

CITY           SKY/WX    TMP DP  RH WIND       PRES   REMARKS
ELKINS         LGT RAIN  62  49  62 NW10      30.06F
$$

WVZ052-231800-
Eastern Panhandle of West Virginia

CITY           SKY/WX    TMP DP  RH WIND       PRES   REMARKS
MARTINSBURG      N/A     70  52  52 CALM      29.97F
PETERSBURG       N/A     68  57  67 E5        30.01F
$$




USA.gov is the U.S. government's official web portal to all federal, state and local government web resources and services.